[[{"header":{"parameterUnit":"m.s-1","parameterCategory":1,"la1":30.2991,"la2":30.254,"lo1":-89.0895,"lo2":-89.0444,"dy":0.0017,"dx":0.0017,"nx":28,"ny":28,"refTime":"2023-07-27T21:00:00:Z","depth":0,"parameterNumber":2,"parameterNumberName":"U-component_of_WINDS"},"data":[0,0,0,0,0,0,0,0,0,0,0,0,0,0,0,0,0,0,0,0,0,0,0,0,0,0,0,0,0,0,0,0,0,0,0,0,0,0,0,0,0,0,0,0,0,0,0,0,0,0,0,0,0,0,0,0,0,0,2.8755,2.8756,0,2.8779,2.878,2.878,2.8694,2.8692,2.8689,2.8687,2.8713,2.8716,2.8719,0,0,0,0,0,0,0,0,0,0,0,0,0,2.8635,2.8638,2.8755,2.8756,2.8756,2.8779,2.878,2.878,2.8695,2.8691,2.8688,2.8685,2.8712,2.8715,2.8719,0,0,0,0,0,0,0,0,0,0,0,0,0,2.8676,2.8638,2.8755,2.8716,2.8713,2.8779,2.878,2.878,2.8695,2.8691,2.8687,2.8684,2.871,2.8715,2.872,2.8826,0,0,2.8734,2.8736,0,0,0,0,0,0,0,0,2.8674,2.8681,2.8722,2.8719,2.8715,2.873,2.8747,2.8795,2.8696,2.8702,2.8686,2.8682,2.8722,2.8725,2.8738,2.8827,2.8828,2.8734,2.8737,2.8739,2.874,0,0,0,0,0,0,0,2.8671,2.8679,2.8765,2.8722,2.8719,2.8697,2.8699,2.8756,2.8733,2.8701,2.8695,2.8699,2.8719,2.8734,2.8738,2.8828,2.8734,2.8738,2.8741,2.8743,2.9,2.9004,0,0,0,0,0,0,2.8673,2.8677,2.8764,2.8766,2.8685,2.8702,2.8704,2.8729,2.8732,2.8729,2.8702,2.8695,2.8728,2.8733,2.8739,2.8859,2.8739,2.8743,2.8746,2.8996,2.9001,2.9005,0,0,0,0,0,0,2.8671,2.8682,2.8763,2.872,2.8728,2.8709,2.8737,2.8732,2.8746,2.8733,2.8729,2.8721,2.8725,2.8732,2.8803,2.8859,2.8745,2.875,2.8991,2.8998,2.9003,2.9103,0,0,0,0,0,0,2.8668,2.8682,2.8722,2.8721,2.8731,2.8828,2.8741,2.8735,2.8754,2.8745,2.875,2.8747,2.8723,2.8797,2.8808,2.8863,2.8753,2.8986,2.8994,2.9001,2.9095,2.9112,2.9127,0,0,0,0,0,2.8664,2.8751,2.8725,2.8736,2.8781,2.8831,2.8837,2.8807,2.8759,2.8799,2.879,2.8747,2.8852,2.8805,2.8817,2.8874,2.8983,2.8992,2.9001,2.9088,2.9109,2.9126,0,0,0,0,0,0,2.876,2.875,2.8721,2.881,2.8822,2.8817,2.8866,2.8831,2.8857,2.8847,2.8809,2.8811,2.8888,2.8889,2.8837,2.8975,2.8909,2.8921,2.8971,2.8991,2.9006,2.9003,2.8757,0,0,0,0,0,2.8792,2.8833,2.8822,2.8902,2.8909,2.8887,2.8908,2.8883,2.8894,2.8899,2.8896,2.8908,2.8943,2.8968,2.9,2.9095,2.9093,2.9141,2.9157,2.917,2.918,2.9226,2.9246,2.9035,2.9035,2.9035,0,0,2.8857,2.8857,2.8886,2.8921,2.8927,2.897,2.8892,2.8942,2.8972,2.8907,2.8972,2.897,2.8982,2.9065,2.9101,2.9068,2.9237,2.9181,2.9192,2.9195,2.9238,2.9257,2.9275,2.9042,2.904,2.9039,0,0,2.8997,2.9003,2.9067,2.9075,2.9085,2.9069,2.9084,2.9084,2.9079,2.9145,2.9095,2.9132,2.9195,2.9203,2.9216,2.9357,2.9317,2.9369,2.9451,2.9497,2.9513,2.9528,2.9574,2.9592,2.9379,2.938,2.938,0,2.9078,2.914,2.9106,2.9157,2.9173,2.9114,2.9178,2.9187,2.9208,2.922,2.9182,2.9257,2.9261,2.9343,2.9377,2.9391,2.9405,2.9367,2.9514,2.9528,2.9541,2.9585,2.9603,2.9386,2.9385,2.9384,2.9384,0,2.9236,2.928,2.9331,2.9349,2.9371,2.943,2.9403,2.9429,2.9402,2.939,2.9456,2.9458,2.9488,2.9506,2.9482,2.9584,2.9562,2.952,2.9453,2.9567,2.9608,2.9625,2.9394,2.9392,2.939,2.9389,0,0,2.9438,2.9434,2.9454,2.9459,2.9465,2.9498,2.9552,2.958,2.9601,2.9618,2.966,2.9714,2.9673,2.9688,2.9664,2.9705,2.9811,2.9657,2.9656,2.9682,2.992,2.9949,2.9969,2.9786,2.9789,2.9791,2.9917,0,2.9573,2.9664,2.9633,2.9725,2.9763,2.9707,2.9754,2.9762,2.9752,2.9782,2.9772,2.9808,2.9755,2.9762,2.98,2.979,2.9858,2.9781,2.9823,2.9825,2.9818,2.9991,3.0022,3.0141,2.9933,2.9936,2.9938,0,2.9742,2.9761,2.9857,2.9852,2.9867,2.991,2.993,2.9961,2.9968,2.9958,2.9973,2.9939,2.9991,2.9925,2.9994,2.9943,2.9958,2.9956,2.996,2.996,2.9886,2.9992,3.0179,3.0195,2.9963,2.9961,2.9959,0,2.9874,2.9925,2.9987,2.9995,2.9992,3.0023,3.0023,3.0026,3.0044,3.0063,3.0073,3.0098,3.0112,3.0132,3.0105,3.006,3.0177,3.011,3.0168,3.0169,3.0193,3.0191,3.0381,3.0209,3.0209,3.0209,3.0208,0,3.0026,3.0086,3.0046,3.0085,3.0149,3.0113,3.0178,3.0172,3.0175,3.021,3.0165,3.0199,3.0163,3.0194,3.0174,3.0232,3.024,3.0232,3.0225,3.0234,3.0234,3.0241,3.0231,3.0213,3.0212,3.0211,3.021,0,3.0184,3.016,3.0224,3.0215,3.0214,3.0261,3.0253,3.0288,3.0274,3.0319,3.0328,3.0306,3.0339,3.0315,3.035,3.0336,3.0411,3.0395,3.0408,3.0402,3.046,3.0453,3.0658,3.0681,3.0498,3.05,3.0501,0,3.028,3.0324,3.0319,3.0338,3.0341,3.0374,3.039,3.0356,3.0375,3.0385,3.0418,3.0447,3.0468,3.0524,3.0511,3.0536,3.0518,3.0588,3.0521,3.0528,3.0514,3.0511,3.0513,3.0601,3.0603,3.0605,3.0606,0,3.0453,3.0438,3.0463,3.0483,3.0504,3.0519,3.053,3.0549,3.0514,3.0538,3.057,3.0586,3.0619,3.0648,3.0668,3.0668,3.0631,3.0627,3.0641,3.0649,3.0653,3.0648,3.0441,3.0622,3.0621,3.0619,3.0619,3.0618,3.058,3.0615,3.0615,3.0644,3.0648,3.0659,3.0689,3.0678,3.0704,3.0727,3.0706,3.0744,3.0748,3.077,3.0775,3.0804,3.0775,3.0796,3.0801,3.0806,3.0812,3.0651,3.0808,3.0807,3.0807,3.0806,3.0806,0,3.0747,3.0744,3.077,3.0785,3.0807,3.077,3.0779,3.08,3.0834,3.084,3.0861,3.0896,3.0923,3.0912,3.0935,3.0961,3.0944,3.0968,3.0964,3.0963,3.0838,3.0822,3.098,3.098,3.098,3.098,3.098,3.098,3.0836,3.0891,3.0876,3.0933,3.0929,3.0965,3.0973,3.0982,3.0986,3.1027,3.1048,3.104,3.1039,3.1061,3.1084,3.1079,3.1089,3.1118,3.1108,3.099,3.0973,3.0956,3.094,3.1121,3.1121,3.1229,3.123,3.1231]},{"header":{"parameterUnit":"m.s-1","parameterCategory":1,"la1":30.2991,"la2":30.254,"lo1":-89.0895,"lo2":-89.0444,"dy":0.0017,"dx":0.0017,"nx":28,"ny":28,"refTime":"2023-07-27T21:00:00:Z","depth":0,"parameterNumber":3,"parameterNumberName":"V-component_of_WINDS"},"data":[0,0,0,0,0,0,0,0,0,0,0,0,0,0,0,0,0,0,0,0,0,0,0,0,0,0,0,0,0,0,0,0,0,0,0,0,0,0,0,0,0,0,0,0,0,0,0,0,0,0,0,0,0,0,0,0,0,0,1.6688,1.669,0,1.6853,1.6855,1.6857,1.6898,1.6897,1.6896,1.6895,1.7062,1.7067,1.7073,0,0,0,0,0,0,0,0,0,0,0,0,0,1.6404,1.6409,1.6688,1.669,1.6692,1.6853,1.6855,1.6858,1.6898,1.6897,1.6896,1.6894,1.706,1.7067,1.7073,0,0,0,0,0,0,0,0,0,0,0,0,0,1.6544,1.641,1.6687,1.6732,1.6737,1.6853,1.6855,1.6858,1.6899,1.6897,1.6895,1.6894,1.7058,1.7066,1.7074,1.7156,0,0,1.7099,1.7103,0,0,0,0,0,0,0,0,1.6536,1.6554,1.6723,1.6729,1.6735,1.6853,1.6816,1.6958,1.6899,1.6837,1.6895,1.6893,1.6994,1.7007,1.7042,1.7164,1.7171,1.71,1.7105,1.7108,1.7111,0,0,0,0,0,0,0,1.6526,1.6547,1.6753,1.6725,1.6733,1.6742,1.676,1.6843,1.6922,1.6843,1.6846,1.6865,1.6997,1.7034,1.7046,1.7174,1.71,1.7107,1.7112,1.7115,1.737,1.7372,0,0,0,0,0,0,1.6509,1.6539,1.6748,1.6758,1.663,1.6749,1.6769,1.6817,1.6922,1.6936,1.6866,1.6866,1.7021,1.7036,1.7052,1.7154,1.7108,1.7116,1.7121,1.7368,1.737,1.7372,0,0,0,0,0,0,1.6503,1.6527,1.6741,1.665,1.6677,1.6755,1.6809,1.6821,1.6858,1.694,1.6953,1.689,1.702,1.704,1.713,1.716,1.7119,1.7127,1.7366,1.7369,1.7371,1.7359,0,0,0,0,0,0,1.6494,1.6525,1.6558,1.665,1.6682,1.6817,1.6811,1.6826,1.6872,1.6874,1.6965,1.6979,1.702,1.7117,1.7138,1.7171,1.7133,1.7363,1.7367,1.737,1.7357,1.7361,1.7364,0,0,0,0,0,1.6484,1.6548,1.6559,1.6584,1.6725,1.6819,1.6837,1.6885,1.6875,1.6908,1.696,1.6976,1.7153,1.7126,1.715,1.7185,1.7362,1.7366,1.737,1.7355,1.736,1.7364,0,0,0,0,0,0,1.6457,1.6561,1.6575,1.667,1.6735,1.6826,1.6869,1.6889,1.6958,1.6956,1.7011,1.7031,1.7117,1.716,1.7128,1.7269,1.7257,1.7266,1.7238,1.7243,1.7247,1.7234,1.714,0,0,0,0,0,1.6462,1.653,1.6617,1.6693,1.6725,1.6791,1.6834,1.6864,1.6934,1.6962,1.7021,1.7087,1.7157,1.7203,1.7272,1.7363,1.7383,1.7399,1.7403,1.7405,1.7412,1.7462,1.7469,1.7386,1.7386,1.7386,0,0,1.6473,1.6538,1.6578,1.6689,1.6743,1.6811,1.6814,1.6887,1.6938,1.6973,1.7061,1.7106,1.7183,1.7273,1.7315,1.7312,1.7439,1.7411,1.7412,1.7418,1.7467,1.7474,1.7481,1.7389,1.7388,1.7388,0,0,1.6528,1.6585,1.6653,1.6708,1.679,1.6833,1.6849,1.6937,1.6968,1.7057,1.7084,1.7145,1.7266,1.732,1.7362,1.7436,1.7452,1.7457,1.7476,1.7523,1.753,1.7536,1.7561,1.7569,1.7464,1.7464,1.7464,0,1.6531,1.6637,1.6686,1.6757,1.6804,1.6839,1.6908,1.6958,1.7058,1.7089,1.7084,1.7235,1.729,1.7392,1.7409,1.7444,1.7462,1.7447,1.7525,1.7532,1.7538,1.7562,1.7571,1.7463,1.7463,1.7463,1.7463,0,1.6636,1.6708,1.6753,1.6849,1.6901,1.6971,1.703,1.7076,1.7102,1.7145,1.7234,1.7301,1.7384,1.741,1.7436,1.7516,1.751,1.7514,1.7503,1.7545,1.7568,1.7578,1.7463,1.7463,1.7463,1.7463,0,0,1.6679,1.68,1.6816,1.6859,1.6952,1.7008,1.7078,1.716,1.7198,1.7265,1.7324,1.7425,1.7429,1.7478,1.7509,1.7551,1.7603,1.755,1.7552,1.7556,1.7692,1.7688,1.7698,1.7614,1.7616,1.7618,1.7686,0,1.6744,1.6872,1.6918,1.7022,1.7088,1.7122,1.7182,1.7245,1.7287,1.7348,1.7395,1.7465,1.7465,1.7494,1.7537,1.7587,1.7631,1.7583,1.7669,1.7671,1.7648,1.7711,1.7707,1.7768,1.7695,1.7697,1.7698,0,1.6838,1.6907,1.7018,1.71,1.713,1.7184,1.7261,1.732,1.7391,1.7418,1.7472,1.75,1.7573,1.7558,1.7659,1.7625,1.7663,1.7692,1.7696,1.7705,1.7687,1.7721,1.7789,1.7797,1.7713,1.7712,1.7711,0,1.6857,1.6977,1.7058,1.7094,1.7193,1.723,1.7273,1.7342,1.7387,1.7455,1.7484,1.7559,1.7599,1.7656,1.7703,1.7688,1.7799,1.7788,1.7822,1.7821,1.7844,1.7842,1.7917,1.7869,1.7869,1.7869,1.7869,0,1.6925,1.6991,1.7068,1.7118,1.7192,1.7244,1.7316,1.736,1.7421,1.7479,1.7513,1.7566,1.7626,1.7687,1.7724,1.7801,1.7819,1.7842,1.7851,1.7839,1.7836,1.7864,1.786,1.7871,1.7871,1.787,1.787,0,1.6958,1.7012,1.7103,1.7189,1.7212,1.7263,1.7335,1.7384,1.7427,1.7501,1.7521,1.7588,1.7661,1.7714,1.7809,1.7834,1.7915,1.7925,1.7892,1.7896,1.7927,1.7923,1.8023,1.8038,1.798,1.7981,1.7981,0,1.6997,1.7049,1.714,1.7181,1.7224,1.729,1.7337,1.7389,1.7435,1.7519,1.7557,1.7633,1.7696,1.7811,1.7868,1.794,1.7951,1.7981,1.7962,1.7947,1.795,1.7946,1.795,1.7983,1.7984,1.7984,1.7984,0,1.706,1.7084,1.715,1.7225,1.728,1.7341,1.7403,1.7435,1.7497,1.7548,1.7623,1.7672,1.7769,1.7843,1.792,1.7963,1.7983,1.799,1.8001,1.7989,1.7967,1.7978,1.7898,1.7987,1.7987,1.7987,1.7986,1.7986,1.7097,1.7144,1.7215,1.7287,1.7339,1.7395,1.7445,1.7494,1.7558,1.7641,1.7667,1.7745,1.7813,1.7919,1.7962,1.8023,1.8022,1.8039,1.8043,1.8046,1.8045,1.7958,1.8037,1.8037,1.8037,1.8037,1.8037,0,1.7161,1.7208,1.7274,1.7359,1.7415,1.743,1.7499,1.7544,1.7613,1.7674,1.7736,1.7821,1.7893,1.7955,1.8029,1.8065,1.8077,1.8083,1.808,1.8089,1.8042,1.8024,1.8073,1.8073,1.8073,1.8072,1.8072,1.8072,1.7201,1.7281,1.7313,1.7417,1.7464,1.7541,1.7578,1.763,1.7679,1.7774,1.7834,1.7874,1.7935,1.8013,1.8079,1.8096,1.8121,1.8124,1.8143,1.8097,1.8093,1.8089,1.8072,1.813,1.813,1.8185,1.8185,1.8186]}]]